Andrews, NC

5:28 PM EST on December 16, 2017 (GMT -0500)
Andrews

Weather History for KRHP - February, 2013

Change the Weather History Date:

Friday, February 1, 2013

  Actual Average (KMMI) Record (KMMI)
Temperature  
Mean Temperature 29 °F -  
Max Temperature 39 °F 50 °F 66 °F (2016)
Min Temperature 20 °F 25 °F 19 °F (2014)
Degree Days  
Heating Degree Days 36    
Moisture  
Dew Point 13 °F    
Average Humidity 54    
Maximum Humidity 91    
Minimum Humidity 28    
Precipitation  
Precipitation 0.00 in - - ()
Sea Level Pressure  
Sea Level Pressure 30.22 in    
Wind  
Wind Speed 6 mph (NNE)    
Max Wind Speed 17 mph    
Max Gust Speed 30 mph    
Visibility 10 miles    
Events Snow    
Averages and records for this station are not official NWS values.
T = Trace of Precipitation, MM = Missing Value Source: NWS Daily Summary

Daily Weather History Graph

Daily Weather History Graph

Search for Another Location

Airport or City:

Trip Planner

Search our weather history database for the weather conditions in past years. The results will help you decide how hot, cold, wet, or windy it might be!

Date:

Astronomy

Feb. 01, 2013 Rise Set
Actual Time 7:34 AM EST 6:04 PM EST
Civil Twilight 7:07 AM EST 6:30 PM EST
Nautical Twilight 6:37 AM EST 7:01 PM EST
Astronomical Twilight 6:07 AM EST 7:31 PM EST
Moon 11:54 PM EST (2/1) 10:22 AM EST (2/1)
Length of Visible Light 11h 23m
Length of Day
10h 29m
Waning Gibbous, 70% of the Moon is Illuminated
Feb 1
Waning Gibbous
Feb 3
Last Quarter
Feb 10
New
Feb 17
First Quarter
Feb 25
Full

Hourly Weather History & Observations

Time (EST) Temp. Windchill Dew Point Humidity Pressure Visibility Wind Dir Wind Speed Gust Speed Precip Events Conditions
12:15 AM 28.6 °F - 26.1 °F 90% 30.07 in 10.0 mi Calm Calm - N/A   Mostly Cloudy
12:35 AM 29.7 °F - 27.3 °F 91% 30.07 in 10.0 mi Calm Calm - N/A   Overcast
12:55 AM 30.2 °F - 27.7 °F 90% 30.06 in 10.0 mi Calm Calm - N/A   Overcast
1:15 AM 30.9 °F - 28.6 °F 91% 30.05 in 10.0 mi Calm Calm - N/A   Overcast
1:35 AM 31.3 °F - 28.4 °F 89% 30.05 in 10.0 mi Calm Calm - N/A   Overcast
1:55 AM 31.6 °F - 28.8 °F 89% 30.04 in 10.0 mi Calm Calm - N/A   Overcast
2:15 AM 31.6 °F 28.3 °F 29.3 °F 91% 30.04 in 10.0 mi West 3.5 mph - N/A   Overcast
2:35 AM 33.1 °F 30.0 °F 27.3 °F 79% 30.03 in 10.0 mi WNW 3.5 mph - N/A   Overcast
3:15 AM 38.7 °F 29.8 °F 28.0 °F 66% 30.03 in 10.0 mi West 16.1 mph 26.5 mph N/A   Overcast
3:35 AM 38.5 °F 29.9 °F 28.2 °F 67% 30.03 in 10.0 mi West 15.0 mph 26.5 mph N/A   Overcast
3:55 AM 37.6 °F 28.4 °F 28.0 °F 68% 30.06 in 10.0 mi WNW 16.1 mph 29.9 mph N/A Snow Light Snow
4:15 AM 35.6 °F 25.5 °F 25.9 °F 68% 30.07 in 10.0 mi West 17.3 mph 23.0 mph N/A   Overcast
4:35 AM 35.1 °F 25.5 °F 25.7 °F 69% 30.06 in 10.0 mi West 15.0 mph - N/A   Overcast
4:55 AM 34.2 °F 23.6 °F 25.0 °F 69% 30.08 in 10.0 mi West 17.3 mph 24.2 mph N/A   Overcast
5:15 AM 32.0 °F 21.6 °F 22.3 °F 67% 30.10 in 10.0 mi West 15.0 mph 29.9 mph N/A   Scattered Clouds
5:35 AM 31.5 °F 21.4 °F 18.1 °F 58% 30.11 in 10.0 mi West 13.8 mph 27.6 mph N/A   Clear
6:15 AM 28.4 °F 19.1 °F 9.5 °F 45% 30.15 in 10.0 mi West 10.4 mph 18.4 mph N/A   Clear
6:35 AM 27.5 °F 19.3 °F 12.0 °F 52% 30.16 in 10.0 mi WSW 8.1 mph - N/A   Clear
7:15 AM 27.3 °F 22.0 °F 6.6 °F 42% 30.18 in 10.0 mi NE 4.6 mph 17.3 mph N/A   Clear
7:35 AM 25.7 °F 15.7 °F 7.9 °F 47% 30.20 in 10.0 mi NNE 10.4 mph 16.1 mph N/A   Clear
7:55 AM 24.8 °F 12.9 °F 7.3 °F 48% 30.21 in 10.0 mi NNE 13.8 mph 18.4 mph N/A   Clear
8:15 AM 24.8 °F 12.9 °F 5.7 °F 44% 30.22 in 10.0 mi NNE 13.8 mph 20.7 mph N/A   Clear
8:35 AM 24.8 °F 14.0 °F 6.6 °F 46% 30.23 in 10.0 mi North 11.5 mph 16.1 mph N/A   Clear
8:55 AM 25.2 °F 19.5 °F 7.5 °F 47% 30.24 in 10.0 mi NNE 4.6 mph - N/A   Clear
9:15 AM 26.1 °F 19.4 °F 9.5 °F 50% 30.25 in 10.0 mi ENE 5.8 mph - N/A   Clear
9:35 AM 25.7 °F 15.7 °F 8.8 °F 49% 30.26 in 10.0 mi North 10.4 mph - N/A   Clear
9:55 AM 26.1 °F 16.2 °F 9.1 °F 49% 30.28 in 10.0 mi NE 10.4 mph 16.1 mph N/A   Unknown
10:15 AM 26.4 °F 15.5 °F 10.8 °F 52% 30.29 in 10.0 mi East 12.7 mph - N/A   Clear
10:35 AM 26.6 °F 16.8 °F 10.0 °F 50% 30.29 in 10.0 mi East 10.4 mph - N/A   Clear
11:15 AM 28.0 °F 20.0 °F 8.4 °F 44% 30.30 in 10.0 mi East 8.1 mph - N/A   Clear
11:35 AM 30.0 °F 24.1 °F 8.4 °F 40% 30.29 in 10.0 mi NNE 5.8 mph - N/A   Clear
11:55 AM 29.5 °F 21.1 °F 6.6 °F 38% 30.29 in 10.0 mi NE 9.2 mph - N/A   Clear
12:15 PM 30.7 °F 23.3 °F 7.7 °F 38% 30.29 in 10.0 mi ENE 8.1 mph - N/A   Clear
12:35 PM 32.0 °F 23.6 °F 9.5 °F 39% 30.29 in 10.0 mi NE 10.4 mph 19.6 mph N/A   Clear
1:15 PM 32.5 °F 24.2 °F 7.9 °F 36% 30.28 in 10.0 mi ENE 10.4 mph 18.4 mph N/A   Clear
1:35 PM 33.8 °F 25.8 °F 7.9 °F 34% 30.27 in 10.0 mi ENE 10.4 mph 16.1 mph N/A   Clear
1:55 PM 33.1 °F 24.9 °F 5.7 °F 32% 30.26 in 10.0 mi NE 10.4 mph - N/A   Clear
2:15 PM 33.3 °F 24.6 °F 6.6 °F 33% 30.26 in 10.0 mi NE 11.5 mph 15.0 mph N/A   Clear
2:35 PM 33.3 °F 24.1 °F 7.5 °F 34% 30.26 in 10.0 mi NE 12.7 mph 18.4 mph N/A   Clear
2:55 PM 34.0 °F 25.0 °F 7.3 °F 33% 30.25 in 10.0 mi ENE 12.7 mph 17.3 mph N/A   Clear
3:15 PM 33.4 °F 25.9 °F 5.9 °F 31% 30.26 in 10.0 mi ENE 9.2 mph 17.3 mph N/A   Clear
3:35 PM 33.3 °F 24.6 °F 5.5 °F 31% 30.25 in 10.0 mi ENE 11.5 mph 18.4 mph N/A   Clear
3:55 PM 33.6 °F 27.5 °F 5.9 °F 31% 30.27 in 10.0 mi North 6.9 mph - N/A   Clear
4:15 PM 33.3 °F 28.9 °F 3.0 °F 28% 30.27 in 10.0 mi North 4.6 mph - N/A   Clear
4:35 PM 33.3 °F 26.4 °F 3.2 °F 28% 30.28 in 10.0 mi NNE 8.1 mph - N/A   Clear
5:15 PM 32.0 °F 24.2 °F 3.9 °F 31% 30.27 in 10.0 mi North 9.2 mph - N/A   Clear
5:35 PM 31.6 °F 24.4 °F 4.3 °F 31% 30.27 in 10.0 mi North 8.1 mph - N/A   Clear
5:55 PM 30.4 °F 23.6 °F 4.1 °F 33% 30.28 in 10.0 mi North 6.9 mph - N/A   Clear
6:15 PM 28.8 °F 23.7 °F 9.1 °F 44% 30.29 in 10.0 mi SSE 4.6 mph - N/A   Clear
6:35 PM 28.0 °F - 8.1 °F 43% 30.29 in 10.0 mi Calm Calm - N/A   Clear
6:55 PM 28.2 °F - 7.0 °F 41% 30.30 in 10.0 mi Calm Calm - N/A   Clear
7:15 PM 27.1 °F - 10.4 °F 49% 30.31 in 10.0 mi Calm Calm - N/A   Clear
7:35 PM 26.2 °F 22.1 °F 11.5 °F 54% 30.31 in 10.0 mi NW 3.5 mph - N/A   Clear
7:55 PM 25.9 °F - 9.1 °F 49% 30.32 in 10.0 mi Calm Calm - N/A   Clear
8:15 PM 24.8 °F - 11.1 °F 56% 30.32 in 10.0 mi Calm Calm - N/A   Clear
8:35 PM 24.8 °F - 10.9 °F 56% 30.32 in 10.0 mi Calm Calm - N/A   Clear
8:55 PM 23.0 °F - 12.6 °F 64% 30.32 in 10.0 mi Calm Calm - N/A   Clear
9:15 PM 23.2 °F - 12.4 °F 63% 30.32 in 10.0 mi Calm Calm - N/A   Clear
9:35 PM 22.3 °F - 13.6 °F 69% 30.32 in 10.0 mi Calm Calm - N/A   Clear
9:55 PM 21.4 °F - 13.1 °F 70% 30.32 in 10.0 mi Calm Calm - N/A   Clear
10:15 PM 22.3 °F - 13.8 °F 70% 30.32 in 10.0 mi Calm Calm - N/A   Clear
10:35 PM 22.1 °F - 12.2 °F 66% 30.33 in 10.0 mi Calm Calm - N/A   Clear
10:55 PM 21.4 °F - 12.7 °F 69% 30.33 in 10.0 mi Calm Calm - N/A   Clear
11:15 PM 20.8 °F - 14.2 °F 75% 30.33 in 10.0 mi Calm Calm - N/A   Clear
11:35 PM 21.0 °F - 13.3 °F 72% 30.33 in 10.0 mi Calm Calm - N/A   Clear
11:55 PM 20.1 °F - 14.4 °F 78% 30.33 in 10.0 mi Calm Calm - N/A   Clear